{"data":{"norad_id":66089,"epoch":"2026-05-25T03:46:09.787008Z","epoch_age_seconds":75552,"freshness":"FRESH","line1":"1 66089U 25236D   26145.15705772  .00006614  00000+0  23518-3 0  9997","line2":"2 66089  53.1611 108.5770 0001440  92.5358 267.5807 15.30206268 34653","mean_motion":15.30206268,"eccentricity":0.000144,"inclination_deg":53.1611,"raan_deg":108.577,"arg_perigee_deg":92.5358,"mean_anomaly_deg":267.5807,"bstar":0.00023518,"rev_number":3465,"period_min":94.104960234028,"perigee_km":474.20947436199,"apogee_km":476.18323436805,"semimajor_km":6853.333354365,"source":"CELESTRAK","updated_at":"2026-05-25T13:38:21.027109Z"}}